Home   Weather   Wellington   Past weeks
Flag for New Zealand

Past Weather in Wellington, New Zealand — Yesterday and Last 2 Weeks

Now
57 °F

Cool.


Feels Like: 54 °F
Forecast: 59 / 48 °F
Wind: 16 mph from North

Location: Wellington Airport

Current Time: Oct 21, 2019 at 7:08:33 pm

Latest Report: Oct 21, 2019 at 6:00 pm


Visibility: N/A

Pressure: 29.53 "Hg

Humidity: 72%

Dew Point: 48 °F

Location of WellingtonLocation

Past Weather in Wellington — Graph

°F

Wellington Temperature Yesterday

Maximum temperature yesterday: 61 °F (at 2:30 pm)
Minimum temperature yesterday: 54 °F (at 5:00 am)
Average temperature yesterday: 57 °F

High & Low Weather Summary for the Past Weeks

 TemperatureHumidityPressure
High66 °F (Oct 17, 2:30 pm)100% (Oct 11, 4:00 am)30.21 "Hg (Oct 11, 4:00 am)
Low43 °F (Oct 7, 2:30 am)52% (Oct 14, 2:00 pm)29.53 "Hg (Oct 21, 4:00 pm)
Average56 °F80%29.91 "Hg
* Reported Oct 6 5:00 pm — Oct 21 5:30 pm, Wellington. Weather by CustomWeather, © 2019

Note: Actual official high and low records may vary slightly from our data, if they occured in-between our weather recording intervals... More about our weather records

Advertising

Wellington Weather History for the Previous 24 Hours

Scroll right to see more
 ConditionsComfort  
Time TempWeatherWind HumidityBarometerVisibility
5:30 pm
Mon, Oct 21
57 °FCool.16 mph72%29.56 "HgN/A
5:00 pm59 °FCool.20 mph63%29.56 "HgN/A
4:30 pm59 °FCool.17 mph63%29.56 "HgN/A
4:00 pm61 °FRefreshingly cool.21 mph55%29.53 "HgN/A
3:30 pm61 °FRefreshingly cool.24 mph55%29.56 "HgN/A
3:00 pm61 °FRefreshingly cool.24 mph59%29.56 "HgN/A
2:30 pm61 °FRefreshingly cool.22 mph59%29.59 "HgN/A
2:00 pm61 °FCool.16 mph68%29.59 "HgN/A
1:00 pm61 °FPartly sunny.21 mph68%29.62 "HgN/A
12:30 pm59 °FPartly sunny.25 mph72%29.62 "HgN/A
12:00 pm59 °FPartly sunny.18 mph72%29.65 "HgN/A
11:30 am61 °FPartly sunny.20 mph72%29.68 "HgN/A
11:00 am59 °FBroken clouds.24 mph77%29.68 "HgN/A
10:30 am59 °FPartly sunny.18 mph72%29.68 "HgN/A
10:00 am57 °FPassing clouds.21 mph72%29.71 "HgN/A
9:30 am57 °FLight rain. Partly sunny.22 mph77%29.71 "HgN/A
9:00 am57 °FPartly sunny.20 mph77%29.71 "HgN/A
8:30 am57 °FPartly sunny.18 mph77%29.74 "HgN/A
8:00 am57 °FPartly sunny.16 mph77%29.74 "HgN/A
7:30 am57 °FPartly sunny.20 mph72%29.74 "HgN/A
7:00 am55 °FPartly sunny.20 mph82%29.74 "HgN/A
6:30 am55 °FOvercast.20 mph82%29.74 "HgN/A
6:00 am55 °FOvercast.15 mph82%29.77 "HgN/A
5:30 am57 °FOvercast.20 mph77%29.77 "HgN/A
5:00 am57 °FOvercast.20 mph77%29.77 "HgN/A
4:30 am57 °FPassing clouds.18 mph77%29.80 "HgN/A
4:00 am57 °FMostly cloudy.20 mph77%29.80 "HgN/A
3:30 am57 °FPassing clouds.23 mph77%29.80 "HgN/A
3:00 am57 °FPassing clouds.22 mph77%29.83 "HgN/A
2:30 am57 °FPassing clouds.21 mph77%29.83 "HgN/A
2:00 am57 °FPassing clouds.20 mph77%29.83 "HgN/A
1:30 am57 °FPassing clouds.20 mph77%29.83 "HgN/A
1:00 am57 °FPassing clouds.20 mph77%29.86 "HgN/A
12:30 am57 °FPassing clouds.22 mph82%29.86 "HgN/A
12:00 am57 °FPassing clouds.21 mph82%29.86 "HgN/A
11:30 pm
Sun, Oct 20
57 °FPassing clouds.21 mph82%29.89 "HgN/A
11:00 pm57 °FPartly cloudy.23 mph82%29.89 "HgN/A
10:30 pm57 °FOvercast.21 mph77%29.89 "HgN/A
10:00 pm55 °FPassing clouds.21 mph82%29.89 "HgN/A
9:30 pm55 °FMostly cloudy.18 mph82%29.89 "HgN/A
9:00 pm57 °FPartly cloudy.20 mph77%29.89 "HgN/A
8:30 pm55 °FPassing clouds.24 mph82%29.86 "HgN/A
8:00 pm57 °FPassing clouds.23 mph77%29.86 "HgN/A
7:30 pm57 °FPartly sunny.21 mph77%29.86 "HgN/A
7:00 pm57 °FPartly sunny.22 mph72%29.89 "HgN/A
Weather by CustomWeather, © 2019

See weather overview